Find Starlink 3146

NORAD ID: 49414 Int'l Des: 2021-104 Owner: SPXS Country: US Constellation: starlink operational
LEOCIRCULAR

Live Position

Loading 3D Globe...

About Starlink 3146

Description loading...

Upcoming Passes

Passes for default location (London). Set your location on the main map for personalized predictions.

Altitude History

Loading altitude history...

Two-Line Element Set

1 49414U 21104G 26124.88719372 -.00000521 00000-0 -14650-4 0 9990
2 49414 53.2196 336.8405 0001386 91.6803 268.4348 15.08831060247116
Epoch: May 4, 2026 • Age: 26 hours

Current Status

Altitude 540.2 km
Velocity 7.60 km/s
Sub-Earth Point 24.70°N, 82.65°W
Launch Date Nov 13, 2021
Age 4.4 years
Type internet

Technical Details

Classification Payload
Mass 290.00 kg
Dry Mass 270.00 kg
Total Mass 290.00 kg
Length 0.20 m
Diameter 2.80 m
Span 9.00 m
Shape Box + pan
Manufacturer SPXS
Bus Type Starlink
Phase Status In Orbit
Owner/State SPXS/US

Most Searched